Location: Asheville, NC
(35.6000°N, 82.5500°W)
Time: 16:11:25
(UTC-05:00)

Vanguard 1 Rocket - Pass Details

Date: 09 December 2017
Orbit: 656 x 4222 km, 34.3° (Epoch: 15 January)

Event Time Altitude Azimuth Distance (km) Brightness Sun altitude
Rises 23:18:26 0° 284° (WNW) 6,844 12.1 -71.1°
Reaches altitude 10° 23:22:21 10° 282° (WNW) 6,186 11.7 -71.7°
Enters shadow 23:30:30 34° 275° (W) 5,059 11.0 -73.0°
Exits shadow 00:13:19 - 125° (SE) 7,402 11.9 -77.1°
Sets 00:14:12 0° 125° (SE) 7,540 12.0 -77.1°
